| time (UTC) | temp F | wind direction | speed knots | gust knots | rain 1hr in | rain 24hr in | rain mn in | humidity % | barometer mb |
| 20260903190252 | 61 | 299 | 0.9 | 2.6 | 0.00 | 0.00 | 0.00 | 62 | 1022.9 |
| 20260903183551 | 61 | 313 | 1.7 | 6.1 | 0.00 | 0.00 | 0.00 | 60 | 1023.2 |
| 20260903182652 | 61 | 314 | 0.9 | 7.0 | 0.00 | 0.00 | 0.00 | 60 | 1023.0 |
| 20260903181752 | 61 | 311 | 0.9 | 7.0 | 0.00 | 0.00 | 0.00 | 57 | 1023.1 |
| 20260903180852 | 62 | 284 | 1.7 | 7.0 | 0.00 | 0.00 | 0.00 | 54 | 1022.8 |
| 20260903175952 | 62 | 283 | 0.9 | 7.0 | 0.00 | 0.00 | 0.00 | 48 | 1022.7 |
| 20260903175051 | 62 | 304 | 1.7 | 7.0 | 0.00 | 0.00 | 0.00 | 46 | 1022.6 |
| 20260903174152 | 63 | 296 | 1.7 | 7.0 | 0.00 | 0.00 | 0.00 | 43 | 1022.4 |
| 20260903170552 | 65 | 299 | 0.9 | 6.1 | 0.00 | 0.00 | 0.00 | 29 | 1022.8 |
| 20260903165652 | 65 | 318 | 0.9 | 4.3 | 0.00 | 0.00 | 0.00 | 26 | 1022.9 |
| 20260903163852 | 66 | 304 | 0.9 | 5.2 | 0.00 | 0.00 | 0.00 | 23 | 1022.7 |
| 20260903162951 | 67 | 314 | 1.7 | 6.1 | 0.00 | 0.00 | 0.00 | 22 | 1022.7 |
| 20260903162052 | 68 | 316 | 1.7 | 6.1 | 0.00 | 0.00 | 0.00 | 20 | 1022.6 |
| 20260903161151 | 69 | 308 | 0.9 | 3.5 | 0.00 | 0.00 | 0.00 | 18 | 1022.6 |
| 20260903160252 | 69 | 305 | 0.9 | 6.1 | 0.00 | 0.00 | 0.00 | 17 | 1022.6 |
| 20260903155352 | 69 | 293 | 2.6 | 7.0 | 0.00 | 0.00 | 0.00 | 17 | 1022.5 |
| 20260903154451 | 69 | 298 | 2.6 | 7.0 | 0.00 | 0.00 | 0.00 | 16 | 1022.6 |
| 20260903153551 | 69 | 313 | 1.7 | 7.0 | 0.00 | 0.00 | 0.00 | 15 | 1022.6 |
| 20260903151751 | 70 | 311 | 1.7 | 5.2 | 0.00 | 0.00 | 0.00 | 13 | 1022.6 |
| 20260903150851 | 70 | 323 | 2.6 | 5.2 | 0.00 | 0.00 | 0.00 | 12 | 1022.5 |
| 20260903145951 | 71 | 321 | 0.9 | 5.2 | 0.00 | 0.00 | 0.00 | 12 | 1022.6 |
| 20260903145052 | 71 | 316 | 1.7 | 8.7 | 0.00 | 0.00 | 0.00 | 11 | 1022.5 |
| 20260903144151 | 71 | 335 | 0.9 | 7.0 | 0.00 | 0.00 | 0.00 | 10 | 1022.5 |
| 20260903143252 | 71 | 290 | 0.9 | 6.1 | 0.00 | 0.00 | 0.00 | 10 | 1022.5 |
| 20260903142351 | 72 | 310 | 0.9 | 6.1 | 0.00 | 0.00 | 0.00 | 10 | 1022.5 |
| 20260903141451 | 72 | 329 | 1.7 | 7.0 | 0.00 | 0.00 | 0.00 | 10 | 1022.6 |
| 20260903140551 | 72 | 302 | 0.9 | 6.1 | 0.00 | 0.00 | 0.00 | 10 | 1022.5 |
| 20260903135652 | 72 | 282 | 0.9 | 7.0 | 0.00 | 0.00 | 0.00 | 10 | 1022.6 |
| 20260903134751 | 72 | 317 | 1.7 | 7.0 | 0.00 | 0.00 | 0.00 | 10 | 1022.6 |
| 20260903133851 | 73 | 307 | 0.9 | 7.0 | 0.00 | 0.00 | 0.00 | 10 | 1022.7 |
| 20260903132051 | 77 | 318 | 0.0 | 7.0 | 0.00 | 0.00 | 0.00 | 10 | 1022.5 |
| 20260903131151 | 80 | 297 | 3.5 | 8.7 | 0.00 | 0.00 | 0.00 | 10 | 1022.5 |
| 20260903130251 | 79 | 286 | 3.5 | 8.7 | 0.00 | 0.00 | 0.00 | 10 | 1022.3 |
| 20260903125351 | 78 | 312 | 2.6 | 9.6 | 0.00 | 0.00 | 0.00 | 10 | 1022.4 |
| 20260903124451 | 78 | 326 | 3.5 | 6.1 | 0.00 | 0.00 | 0.00 | 10 | 1022.5 |
| 20260903123551 | 75 | 309 | 0.9 | 6.1 | 0.00 | 0.00 | 0.00 | 10 | 1022.3 |
| 20260903122651 | 74 | 302 | 0.9 | 7.8 | 0.00 | 0.00 | 0.00 | 10 | 1022.6 |
| 20260903120851 | 73 | 297 | 1.7 | 6.1 | 0.00 | 0.00 | 0.00 | 10 | 1022.5 |
| 20260903115051 | 74 | 304 | 0.9 | 10.4 | 0.00 | 0.00 | 0.00 | 10 | 1022.7 |
| 20260903114151 | 74 | 305 | 1.7 | 7.0 | 0.00 | 0.00 | 0.00 | 10 | 1023.1 |
| 20260903113251 | 75 | 298 | 0.9 | 7.8 | 0.00 | 0.00 | 0.00 | 10 | 1023.1 |
| 20260903111451 | 78 | 303 | 0.9 | 5.2 | 0.00 | 0.00 | 0.00 | 10 | 1023.2 |
| 20260903110551 | 77 | 312 | 0.0 | 6.1 | 0.00 | 0.00 | 0.00 | 10 | 1023.2 |
| 20260903105651 | 76 | 307 | 0.9 | 9.6 | 0.00 | 0.00 | 0.00 | 10 | 1023.3 |
| 20260903104751 | 77 | 301 | 1.7 | 7.0 | 0.00 | 0.00 | 0.00 | 10 | 1023.4 |
| 20260903103851 | 77 | 311 | 1.7 | 10.4 | 0.00 | 0.00 | 0.00 | 10 | 1023.4 |
| 20260903102951 | 77 | 325 | 1.7 | 7.0 | 0.00 | 0.00 | 0.00 | 10 | 1023.5 |
| 20260903102051 | 77 | 301 | 1.7 | 10.4 | 0.00 | 0.00 | 0.00 | 10 | 1023.5 |
| 20260903101151 | 76 | 317 | 1.7 | 7.8 | 0.00 | 0.00 | 0.00 | 10 | 1023.6 |
| 20260903100251 | 75 | 319 | 0.9 | 7.0 | 0.00 | 0.00 | 0.00 | 10 | 1023.7 |
| 20260903095352 | 73 | 313 | 0.9 | 6.1 | 0.00 | 0.00 | 0.00 | 10 | 1023.7 |
| 20260903094451 | 72 | 320 | 1.7 | 7.8 | 0.00 | 0.00 | 0.00 | 10 | 1023.8 |
| 20260903093551 | 72 | 310 | 1.7 | 8.7 | 0.00 | 0.00 | 0.00 | 10 | 1023.7 |
| 20260903092651 | 73 | 302 | 1.7 | 7.0 | 0.00 | 0.00 | 0.00 | 10 | 1023.7 |
| 20260903091751 | 73 | 300 | 2.6 | 7.0 | 0.00 | 0.00 | 0.00 | 10 | 1023.8 |
| 20260903090851 | 72 | 290 | 1.7 | 7.0 | 0.00 | 0.00 | 0.00 | 10 | 1023.6 |
| 20260903085051 | 74 | 306 | 1.7 | 6.1 | 0.00 | 0.00 | 0.00 | 10 | 1023.5 |
| 20260903083251 | 72 | 316 | 2.6 | 9.6 | 0.00 | 0.00 | 0.00 | 10 | 1023.9 |
| 20260903082351 | 74 | 337 | 1.7 | 9.6 | 0.00 | 0.00 | 0.00 | 10 | 1023.8 |
| 20260903075651 | 73 | 324 | 0.9 | 7.8 | 0.00 | 0.00 | 0.00 | 10 | 1023.9 |
| 20260903074751 | 73 | 328 | 1.7 | 7.8 | 0.00 | 0.00 | 0.00 | 10 | 1023.8 |
| 20260903073851 | 72 | 327 | 1.7 | 7.8 | 0.00 | 0.00 | 0.00 | 10 | 1023.9 |
| 20260903072951 | 72 | 312 | 0.9 | 7.0 | 0.00 | 0.00 | 0.00 | 10 | 1023.9 |
| 20260903070251 | 72 | 318 | 2.6 | 7.8 | 0.00 | 0.00 | 0.00 | 10 | 1023.7 |
| 20260903064451 | 72 | 298 | 0.9 | 5.2 | 0.00 | 0.00 | 0.00 | 13 | 1023.7 |
| 20260903063551 | 71 | 295 | 1.7 | 5.2 | 0.00 | 0.00 | 0.00 | 15 | 1023.7 |
| 20260903061751 | 70 | 333 | 0.0 | 4.3 | 0.00 | 0.00 | 0.00 | 20 | 1023.7 |
| 20260903060851 | 69 | 321 | 1.7 | 3.5 | 0.00 | 0.00 | 0.00 | 20 | 1023.7 |
| 20260903055951 | 69 | 316 | 0.0 | 3.5 | 0.00 | 0.00 | 0.00 | 24 | 1023.7 |
| 20260903055051 | 67 | 300 | 1.7 | 3.5 | 0.00 | 0.00 | 0.00 | 26 | 1023.5 |
| 20260903054151 | 66 | 316 | 0.0 | 3.5 | 0.00 | 0.00 | 0.00 | 32 | 1023.5 |
| 20260903051451 | 59 | 328 | 0.0 | 2.6 | 0.00 | 0.00 | 0.00 | 51 | 1023.5 |
| 20260903050551 | 58 | 353 | 0.9 | 2.6 | 0.00 | 0.00 | 0.00 | 53 | 1023.6 |
| 20260903045651 | 58 | 314 | 0.9 | 3.5 | 0.00 | 0.00 | 0.00 | 53 | 1023.4 |
| 20260903044751 | 58 | 331 | 0.0 | 3.5 | 0.00 | 0.00 | 0.00 | 55 | 1023.4 |
| 20260903042951 | 58 | 335 | 0.9 | 3.5 | 0.00 | 0.00 | 0.00 | 57 | 1023.4 |
| 20260903042051 | 57 | 308 | 0.9 | 3.5 | 0.00 | 0.00 | 0.00 | 61 | 1023.3 |
| 20260903040251 | 56 | 0 | 0.0 | 0.0 | 0.00 | 0.00 | 0.00 | 64 | 1023.2 |
| 20260903035351 | 56 | 270 | 0.0 | 1.7 | 0.00 | 0.00 | 0.00 | 64 | 1023.3 |
| 20260903034451 | 56 | 0 | 0.0 | 0.0 | 0.00 | 0.00 | 0.00 | 64 | 1023.2 |
| 20260903033551 | 56 | 0 | 0.0 | 0.0 | 0.00 | 0.00 | 0.00 | 63 | 1023.3 |
| 20260903032651 | 56 | 0 | 0.0 | 0.0 | 0.00 | 0.00 | 0.00 | 63 | 1023.2 |
| 20260903031751 | 56 | 0 | 0.0 | 0.0 | 0.00 | 0.00 | 0.00 | 63 | 1023.4 |
| 20260903025951 | 56 | 0 | 0.0 | 0.0 | 0.00 | 0.00 | 0.00 | 62 | 1023.4 |
| 20260903025051 | 57 | 0 | 0.0 | 0.0 | 0.00 | 0.00 | 0.00 | 62 | 1023.4 |
| 20260903024151 | 57 | 0 | 0.0 | 0.0 | 0.00 | 0.00 | 0.00 | 62 | 1023.4 |
| 20260903022351 | 57 | 0 | 0.0 | 0.0 | 0.00 | 0.00 | 0.00 | 62 | 1023.4 |
| 20260903021451 | 57 | 0 | 0.0 | 0.0 | 0.00 | 0.00 | 0.00 | 62 | 1023.4 |
| 20260903020551 | 57 | 0 | 0.0 | 0.0 | 0.00 | 0.00 | 0.00 | 62 | 1023.5 |
| 20260903015651 | 57 | 0 | 0.0 | 0.0 | 0.00 | 0.00 | 0.00 | 61 | 1023.3 |
| 20260903014751 | 57 | 0 | 0.0 | 0.0 | 0.00 | 0.00 | 0.00 | 61 | 1023.4 |
| 20260903013851 | 57 | 0 | 0.0 | 0.0 | 0.00 | 0.00 | 0.00 | 61 | 1023.3 |
| 20260903012951 | 56 | 0 | 0.0 | 0.0 | 0.00 | 0.00 | 0.00 | 61 | 1023.3 |
| 20260903012051 | 56 | 0 | 0.0 | 0.0 | 0.00 | 0.00 | 0.00 | 61 | 1023.4 |
| 20260903011151 | 56 | 0 | 0.0 | 0.0 | 0.00 | 0.00 | 0.00 | 61 | 1023.4 |
| 20260903005351 | 56 | 0 | 0.0 | 0.0 | 0.00 | 0.00 | 0.00 | 60 | 1023.4 |
| 20260903004451 | 56 | 0 | 0.0 | 0.0 | 0.00 | 0.00 | 0.00 | 59 | 1023.4 |
| 20260903003551 | 56 | 0 | 0.0 | 0.0 | 0.00 | 0.00 | 0.00 | 59 | 1023.3 |
| 20260903002651 | 56 | 270 | 0.0 | 0.9 | 0.00 | 0.00 | 0.00 | 59 | 1023.3 |
| 20260903001751 | 56 | 270 | 0.0 | 0.9 | 0.00 | 0.00 | 0.00 | 58 | 1023.3 |
| 20260903000851 | 56 | 0 | 0.0 | 0.0 | 0.00 | 0.00 | 0.00 | 57 | 1023.4 |
| 20260902235051 | 56 | 0 | 0.0 | 0.0 | 0.00 | 0.00 | 0.00 | 57 | 1023.4 |
| 20260902234151 | 56 | 0 | 0.0 | 0.0 | 0.00 | 0.00 | 0.00 | 56 | 1023.4 |
| 20260902233251 | 56 | 0 | 0.0 | 0.0 | 0.00 | 0.00 | 0.00 | 56 | 1023.4 |
| 20260902232351 | 56 | 0 | 0.0 | 0.0 | 0.00 | 0.00 | 0.00 | 56 | 1023.3 |
| 20260902231451 | 56 | 0 | 0.0 | 0.0 | 0.00 | 0.00 | 0.00 | 56 | 1023.3 |
| 20260902225651 | 55 | 0 | 0.0 | 0.0 | 0.00 | 0.00 | 0.00 | 54 | 1023.3 |
| 20260902224751 | 55 | 0 | 0.0 | 0.0 | 0.00 | 0.00 | 0.00 | 53 | 1023.4 |
| 20260902223851 | 55 | 0 | 0.0 | 0.0 | 0.00 | 0.00 | 0.00 | 52 | 1023.4 |
| 20260902222951 | 55 | 0 | 0.0 | 0.0 | 0.00 | 0.00 | 0.00 | 51 | 1023.6 |
| 20260902222051 | 56 | 270 | 0.0 | 0.9 | 0.00 | 0.00 | 0.00 | 51 | 1023.5 |
| 20260902220251 | 56 | 270 | 0.0 | 0.9 | 0.00 | 0.00 | 0.00 | 48 | 1023.5 |
| 20260902214451 | 56 | 0 | 0.0 | 0.0 | 0.00 | 0.00 | 0.00 | 46 | 1023.4 |
| 20260902213551 | 56 | 270 | 0.0 | 1.7 | 0.00 | 0.00 | 0.00 | 45 | 1023.4 |
| 20260902212651 | 57 | 270 | 0.0 | 1.7 | 0.00 | 0.00 | 0.00 | 43 | 1023.5 |
| 20260902211751 | 57 | 270 | 0.0 | 1.7 | 0.00 | 0.00 | 0.00 | 42 | 1023.3 |
| 20260902205051 | 59 | 0 | 0.0 | 0.0 | 0.00 | 0.00 | 0.00 | 38 | 1023.1 |
| 20260902203251 | 60 | 270 | 0.0 | 0.9 | 0.00 | 0.02 | 0.00 | 37 | 1023.4 |
| 20260902202351 | 61 | 0 | 0.0 | 0.0 | 0.00 | 0.02 | 0.00 | 37 | 1023.1 |
| 20260902201453 | 61 | 324 | 0.0 | 1.7 | 0.00 | 0.02 | 0.00 | 38 | 1023.2 |
| 20260902200551 | 61 | 326 | 0.0 | 4.3 | 0.00 | 0.02 | 0.00 | 40 | 1023.3 |
| 20260902195651 | 60 | 317 | 0.0 | 7.0 | 0.00 | 0.02 | 0.00 | 41 | 1023.4 |
| 20260902194751 | 59 | 344 | 3.5 | 7.0 | 0.00 | 0.02 | 0.00 | 40 | 1023.4 |
| 20260902193851 | 59 | 90 | 0.0 | 1.7 | 0.00 | 0.02 | 0.00 | 35 | 1023.1 |
| 20260902192951 | 59 | 90 | 0.0 | 1.7 | 0.00 | 0.02 | 0.00 | 34 | 1023.0 |